Regional Weather Roundup
Issued by NWS Sioux Falls, SD

Home | Current Version | Previous Version | Text Only | Print | Product List | Glossary On
Versions: 1 2 3 4 5 6 7 8 9 10 11 12 13 14 15 16 17 18 19 20 21 22 23 24 25 26 27 28 29 30 31 32 33 34 35 36 37 38 39 40 41 42 43 44 45 46 47 48 49 50
000
ASUS43 KFSD 012110
RWRFSD

WEATHER ROUNDUP FOR SE SOUTH DAKOTA/SW MINNESOTA/NW IOWA
NATIONAL WEATHER SERVICE SIOUX FALLS SD
400 PM CDT TUE SEP 01 2015

NOTE: "FAIR" INDICATES FEW OR NO CLOUDS BELOW 12,000 FEET WITH NO
SIGNIFICANT WEATHER AND OR OBSTRUCTIONS TO VISIBILITY.


SDZ038>040-050-052>070-012200-
SOUTHEAST SOUTH DAKOTA

CITY           SKY/WX    TMP DP  RH WIND       PRES   REMARKS
BROOKINGS      CLOUDY    77  66  69 SE10      29.88R
CHAMBERLAIN    SUNNY     84  64  51 SE16      29.83S
HURON          CLOUDY    83  69  62 SE13G22   29.82F
MADISON        FAIR      75  72  88 SW10      29.92R
MITCHELL       CLOUDY    79  74  84 E7        29.82F
SIOUX FALLS    CLOUDY    78  69  73 SE10      29.87F
WINNER         FAIR      89  57  33 SE20G28   29.84R
YANKTON        CLOUDY    81  70  69 SE7       29.83F
$$

MNZ071-072-080-081-089-090-097-098-012200-
SOUTHWEST MINNESOTA

CITY           SKY/WX    TMP DP  RH WIND       PRES   REMARKS
FAIRMONT       CLOUDY    82  68  61 S7        29.91S
JACKSON        CLOUDY    81  70  69 S8        29.92S
LUVERNE        CLOUDY    81  68  65 SE6       29.89F
MARSHALL       CLOUDY    81  70  69 SE9       29.88F
MONTEVIDEO     RAIN      75  72  88 S9        29.88S
PIPESTONE      CLOUDY    81  70  69 S10       29.89F
REDWOOD FALLS  CLOUDY    84  72  67 SE8       29.86F
TRACY          CLOUDY    82  73  75 SE6       29.88F
WINDOM         CLOUDY    82  70  65 S6        29.90F
WORTHINGTON    CLOUDY    81  70  69 S9        29.91S
$$

IAZ001>003-012>014-020>022-031-032-NEZ013-014-SDZ071-012200-
NORTHWEST IOWA

CITY           SKY/WX    TMP DP  RH WIND       PRES   REMARKS
CHEROKEE       CLOUDY    83  71  66 S12G17    29.91S
DENISON        PTSUNNY   82  73  74 S7G17     29.91F
ESTHERVILLE    CLOUDY    82  72  71 S5        29.91F
LE MARS        CLOUDY    82  72  69 S13       29.89F
ORANGE CITY    CLOUDY    82  72  69 S10       29.90S
SHELDON        CLOUDY    82  72  69 S10       29.88F
SIOUX CITY     PTSUNNY   85  70  60 S10       29.88F
SPENCER        CLOUDY    84  70  62 S12       29.91F
STORM LAKE     CLOUDY    81  73  78 S8G14     29.94S
$$

ABBREVIATIONS USED IN REMARKS
   TC - TEMPERATURE IN CELSIUS
  WCI - WIND CHILL INDEX
   HX - HEAT INDEX
  VSB - VISIBILITY




USA.gov is the U.S. government's official web portal to all federal, state and local government web resources and services.